Time+07,TemperatureF,Dew PointF,Humidity,Sea Level PressureIn,VisibilityMPH,Wind Direction,Wind SpeedMPH,Gust SpeedMPH,PrecipitationIn,Events,Conditions,WindDirDegrees,DateUTC
12:00 AM,77.0,73.4,89,29.89,1.9,Calm,Calm,-,N/A,,Scattered Clouds,0,2012-12-02 17:00:00
12:30 AM,77.0,73.4,89,29.86,1.9,Calm,Calm,-,N/A,,Scattered Clouds,0,2012-12-02 17:30:00
1:00 AM,75.2,71.6,89,29.86,1.9,Calm,Calm,-,N/A,,Scattered Clouds,0,2012-12-02 18:00:00
1:30 AM,75.2,71.6,89,29.86,1.9,Calm,Calm,-,N/A,,Scattered Clouds,0,2012-12-02 18:30:00
3:00 AM,75.2,71.6,89,29.83,1.9,Calm,Calm,-,N/A,,Scattered Clouds,0,2012-12-02 20:00:00
3:30 AM,75.2,71.6,89,29.83,1.9,Calm,Calm,-,N/A,,Scattered Clouds,0,2012-12-02 20:30:00
4:00 AM,75.2,71.6,89,29.83,1.9,Calm,Calm,-,N/A,,Scattered Clouds,0,2012-12-02 21:00:00
4:30 AM,75.2,71.6,89,29.83,1.9,Calm,Calm,-,N/A,,Mostly Cloudy,0,2012-12-02 21:30:00
5:00 AM,75.2,71.6,89,29.83,1.9,Calm,Calm,-,N/A,,Mostly Cloudy,0,2012-12-02 22:00:00
6:30 AM,73.4,71.6,94,29.83,1.9,NE,3.5,-,N/A,,Mostly Cloudy,40,2012-12-02 23:30:00
7:00 AM,73.4,71.6,94,29.83,1.2,NE,3.5,-,N/A,,Mostly Cloudy,50,2012-12-03 00:00:00
7:30 AM,75.2,71.6,89,29.86,1.2,NE,3.5,-,N/A,,Mostly Cloudy,40,2012-12-03 00:30:00
8:00 AM,75.2,71.6,89,29.86,1.2,NE,3.5,-,N/A,,Mostly Cloudy,40,2012-12-03 01:00:00
8:30 AM,80.6,75.2,84,29.89,1.9,North,3.5,-,N/A,,Mostly Cloudy,10,2012-12-03 01:30:00
9:00 AM,82.4,73.4,74,29.89,1.9,NE,3.5,-,N/A,,Mostly Cloudy,40,2012-12-03 02:00:00
9:30 AM,84.2,71.6,66,29.89,2.5,NE,4.6,-,N/A,,Mostly Cloudy,40,2012-12-03 02:30:00
10:00 AM,87.8,71.6,58,29.89,2.5,NNE,4.6,-,N/A,,Mostly Cloudy,20,2012-12-03 03:00:00
10:30 AM,87.8,71.6,58,29.89,2.5,NE,4.6,-,N/A,,Mostly Cloudy,40,2012-12-03 03:30:00
11:00 AM,87.8,71.6,58,29.89,2.5,East,4.6,-,N/A,,Haze,100,2012-12-03 04:00:00
11:30 AM,89.6,71.6,55,29.89,2.5,Calm,Calm,-,N/A,,Haze,0,2012-12-03 04:30:00
12:00 PM,89.6,71.6,55,29.86,2.5,Calm,Calm,-,N/A,,Haze,0,2012-12-03 05:00:00
12:30 PM,91.4,68.0,46,29.86,2.5,South,6.9,-,N/A,,Haze,190,2012-12-03 05:30:00
1:00 PM,89.6,69.8,52,29.86,3.1,SSW,6.9,-,N/A,,Haze,210,2012-12-03 06:00:00
1:30 PM,89.6,71.6,55,29.83,3.1,SW,6.9,-,N/A,,Haze,220,2012-12-03 06:30:00
2:00 PM,87.8,71.6,58,29.83,3.1,SSW,6.9,-,N/A,,Haze,210,2012-12-03 07:00:00
2:30 PM,87.8,71.6,58,29.80,3.1,SW,6.9,-,N/A,,Haze,220,2012-12-03 07:30:00
3:00 PM,87.8,68.0,52,29.80,3.7,South,6.9,-,N/A,,Mostly Cloudy,170,2012-12-03 08:00:00
3:30 PM,89.6,68.0,49,29.80,3.7,South,6.9,-,N/A,,Haze,190,2012-12-03 08:30:00
4:00 PM,87.8,68.0,52,29.80,3.7,SW,4.6,-,N/A,,Mostly Cloudy,220,2012-12-03 09:00:00
4:30 PM,86.0,69.8,58,29.80,3.7,SW,4.6,-,N/A,,Mostly Cloudy,220,2012-12-03 09:30:00
5:00 PM,86.0,68.0,55,29.80,3.7,SSW,4.6,-,N/A,,Mostly Cloudy,200,2012-12-03 10:00:00
5:30 PM,84.2,73.4,70,29.80,3.7,SW,4.6,-,N/A,,Mostly Cloudy,220,2012-12-03 10:30:00
6:00 PM,84.2,73.4,70,29.80,3.1,West,3.5,-,N/A,,Mostly Cloudy,280,2012-12-03 11:00:00
6:30 PM,82.4,73.4,74,29.83,3.1,Calm,Calm,-,N/A,,Mostly Cloudy,0,2012-12-03 11:30:00
7:00 PM,82.4,75.2,79,29.83,3.1,Calm,Calm,-,N/A,,Mostly Cloudy,0,2012-12-03 12:00:00
7:30 PM,80.6,73.4,79,29.83,3.1,Calm,Calm,-,N/A,,Mostly Cloudy,0,2012-12-03 12:30:00
8:30 PM,78.8,73.4,83,29.86,2.5,Calm,Calm,-,N/A,,Mostly Cloudy,0,2012-12-03 13:30:00
9:00 PM,78.8,73.4,83,29.86,-9999.0,Calm,Calm,-,N/A,,Mostly Cloudy,0,2012-12-03 14:00:00
9:30 PM,78.8,73.4,83,29.89,2.5,Calm,Calm,-,N/A,,Mostly Cloudy,0,2012-12-03 14:30:00
10:00 PM,77.0,73.4,89,29.89,1.9,Calm,Calm,-,N/A,,Mostly Cloudy,0,2012-12-03 15:00:00
10:30 PM,77.0,73.4,89,29.89,2.5,Calm,Calm,-,N/A,,Mostly Cloudy,0,2012-12-03 15:30:00
11:00 PM,77.0,73.4,89,29.89,1.9,Calm,Calm,-,N/A,,Mostly Cloudy,0,2012-12-03 16:00:00
11:30 PM,77.0,73.4,89,29.89,1.9,Calm,Calm,-,N/A,,Mostly Cloudy,0,2012-12-03 16:30:00